www.pogodaiklimat.ru

Погода и климат >> Архив погоды >> Индонезия >> Танах Мерах


ПОГОДА в Танах Мерах

  • Прогноз погоды в Танах Мерах
  • Монитор погоды в Танах Мерах

АРХИВ ПОГОДЫ в Танах Мерах

Время (UTC), дата Ветер
(напр.,м/с)
 
Видим.   Явления Облачность Т
(С)
Тd
(С)
f
(%)
Тe
(С)
Тes
(С)
Комфортность P
(гПа)
Po
(гПа)
Тmin
(С)
Tmax
(С)
R
(мм)
R24
(мм)
S
(см)
15 13.06 штиль 0 7000 м 9/8 240 м
[Sc Ac cuf Ci sp]
+24.8 +24.3 97 +34 +34 очень
душно
1011.2 1008.0
18 13.06 штиль 0 7000 м в посл. час дождь 9/6 270 м
[Sc Ac lent Ci sp]
+24.4 +24.1 98 +34 +34 очень
душно
1010.1 1006.9 0.6
21 13.06 ЮВ 2 7000 м {дождь} 10/8 270 м
[Sc Ac lent Ci sp]
+23.8 +23.5 98 +32 +32 очень
душно
1011.1 1007.9 0.6
00 14.06 штиль 0 7000 м мгла {дождь} 9/5 400 м
[Cu hum Ac trans Ci sp]
+26.6 +24.4 88 +37 +41 очень
душно
1013.1 1008.3 +24.0 1
03 14.06 ЮВ 3 8000 м {дождь} 9/6 240 м
[Cu Sc Ac lent Ci sp]
+29.8 +24.0 71 +41 +45 опасность
перегрева
1010.4 1007.3 0.4
06 14.06 ЮВ 3 8000 м 9/6 240 м
[Cu Sc Ac lent Ci sp]
+29.5 +23.4 70 +40 +42 очень
душно
1008.1 1005.0 0.4
09 14.06 Ю 1 8000 м 9/6 240 м
[Cu Sc Ac lent Ci sp]
+27.3 +24.7 86 +39 +39 очень
душно
1009.4 1006.2
12 14.06 СВ 1 8000 м 9/6 270 м
[Cu Sc Ac lent Ci sp]
+26.4 +24.4 89 +37 +37 очень
душно
1011.5 1008.3 +30.1
15 14.06 штиль 0 8000 м 9/6 270 м
[Cu Sc Ac lent Ci sp]
+25.4 +24.5 95 +36 +36 очень
душно
1011.2 1008.0
18 14.06 штиль 0 8000 м 9/6 270 м
[Sc Ac lent Ci sp]
+24.9 +24.2 96 +34 +34 очень
душно
1010.2 1007.0
21 14.06 ЮВ 1 8000 м 9/8 270 м
[Sc Ac lent Ci sp]
+24.4 +24.1 98 +34 +34 очень
душно
1011.5 1008.3
00 15.06 ЮВ 3 7000 м 9/6 270 м
[Sc Ac lent Ci sp]
+26.6 +23.1 81 +36 +38 очень
душно
1012.7 1009.5 +24.4 0.4
03 15.06 ЮВ 2 7000 м 9/6 270 м
[Cu Sc Ac lent Ci sp]
+29.0 +24.1 75 +40 +45 очень
душно
1010.5 1007.3
06 15.06 ЮВ 1 7000 м 9/6 270 м
[Cu Sc Ac lent Ci sp]
+29.0 +23.9 74 +40 +42 очень
душно
1008.6 1005.5
09 15.06 ЮВ 1 8000 м 9/6 270 м
[Cu Sc Ac lent Ci sp]
+27.3 +24.4 84 +38 +38 очень
душно
1009.8 1006.6
12 15.06 З 1 8000 м 9/6 270 м
[Cu Sc Ac lent Ci sp]
+26.4 +25.4 94 +38 +38 очень
душно
1011.9 1008.7 +29.5
15 15.06 ЮВ 2 7000 м {дождь} 9/8 270 м
[Sc Ac lent Ci sp]
+24.7 +24.2 97 +34 +34 очень
душно
1011.7 1008.5 0.2
18 15.06 штиль 0 8000 м 9/8 270 м
[Sc Ac lent Ci sp]
+24.4 +23.9 97 +33 +33 очень
душно
1011.3 1008.1
21 15.06 ЮВ 2 7000 м {дождь} 9/8 270 м
[Sc Ac lent Ci sp]
+24.7 +24.2 97 +34 +34 очень
душно
1011.7 1008.5 0.2
00 16.06 Ю 2 8000 м 9/8 240 м
[Sc Ac lent Ci sp]
+26.0 +23.7 87 +35 +37 очень
душно
1013.8 1010.6 +24.1 0.2
03 16.06 ЮВ 3 8000 м 9/8 240 м
[Cu Sc Ac lent Ci sp]
+27.7 +23.1 76 +37 +39 очень
душно
1012.1 1008.9
06 16.06 ЮВ 3 8000 м 9/8 270 м
[Cu Sc Ac lent Ci sp]
+29.2 +23.2 70 +39 +40 очень
душно
1009.5 1006.3
09 16.06 штиль 0 8000 м 9/8 270 м
[Cu Sc Ac lent Ci sp]
+26.7 +24.0 85 +37 +37 очень
душно
1011.0 1007.8
12 16.06 штиль 0 8000 м 9/6 270 м
[Sc Ac lent Ci sp]
+26.3 +24.7 91 +37 +37 очень
душно
1012.8 1009.6 +29.3
15 16.06 штиль 0 8000 м 9/6 270 м
[Sc Ac lent Ci sp]
+25.5 +24.6 95 +36 +36 очень
душно
1012.3 1009.1
18 16.06 В 2 8000 м 9/6 270 м
[Sc Ac lent Ci sp]
+24.4 +23.7 96 +33 +33 очень
душно
1011.5 1008.3
21 16.06 штиль 0 8000 м 9/6 270 м
[Sc Ac lent Ci sp]
+23.9 +23.4 97 +32 +32 очень
душно
1012.5 1009.3
00 17.06 В 2 8000 м 9/6 270 м
[Sc Ac lent Ci sp]
+25.1 +23.7 92 +34 +37 очень
душно
1013.7 1010.5 +23.9
03 17.06 ЮВ 3 7000 м в посл. час дождь 9/6 240 м
[Cu Sc Ac lent Ci sp]
+27.0 +24.1 84 +37 +41 очень
душно
1011.8 1008.6 0.2
06 17.06 ЮВ 2 7000 м {дождь} 9/6 240 м
[Cu Sc Ac lent Ci sp]
+28.5 +24.1 77 +40 +41 очень
душно
1009.6 1006.4 0.2
09 17.06 Ю 1 8000 м 9/6 270 м
[Sc Ac lent Ci sp]
+26.9 +24.2 85 +37 +37 очень
душно
1011.2 1008.0
12 17.06 В 1 8000 м 9/6 300 м
[Sc Ac lent Ci sp]
+26.0 +24.2 90 +36 +36 очень
душно
1013.2 1010.0 +30.2
15 17.06 штиль 0 8000 м 9/6 300 м
[Sc Ac lent Ci sp]
+24.9 +24.2 96 +34 +34 очень
душно
1012.5 1009.3
18 17.06 штиль 0 8000 м 9/6 300 м
[Sc Ac lent Ci sp]
+24.4 +23.9 97 +33 +33 очень
душно
1011.9 1008.7
21 17.06 Ю 1 8000 м 9/6 300 м
[Sc Ac lent Ci sp]
+24.0 +23.7 98 +33 +33 очень
душно
1012.6 1009.4
00 18.06 В 2 8000 м 9/6 300 м
[Sc Ac lent Ci sp]
+27.3 +23.5 80 +37 +40 очень
душно
1013.8 1010.6 +24.0 0.2
03 18.06 ЮВ 2 9000 м 9/6 270 м
[Cu Sc Ac trans Ci sp]
+29.3 +23.0 69 +39 +43 очень
душно
1011.7 1008.5
06 18.06 Ю 3 10 км 6/4 270 м
[Cu Sc Ac trans Ci sp]
+30.7 +21.5 58 +39 +42 очень
душно
1009.6 1006.5
09 18.06 штиль 0 10 км 4/3 360 м
[Sc Ac trans Ci fib]
+27.6 +23.0 76 +37 +37 очень
душно
1011.0 1007.8
12 18.06 штиль 0 10 км 5/3 360 м
[Sc Ac trans Ci fib]
+24.4 +22.8 91 +32 +32 очень
душно
1012.9 1009.7 +31.0
15 18.06 штиль 0 10 км 6/5 360 м
[Sc Ac trans Ci fib]
+23.2 +22.5 96 +32 +32 очень
душно
1012.5 1009.3
18 18.06 штиль 0 10 км 8/6 270 м
[Sc Ac trans Ci sp]
+22.9 +22.2 96 +31 +31 очень
душно
1011.9 1008.7
21 18.06 штиль 0 6000 м 10/8 240 м
[Cu Sc Ac lent Ci sp]
+22.5 +22.0 97 +30 +30 очень
душно
1012.8 1009.6 0.2
00 19.06 В 3 6000 м 9/8 240 м
[Cu Sc Ac lent Ci sp]
+25.7 +22.8 84 +34 +35 очень
душно
1013.5 1010.3 +22.5 2
03 19.06 ЮВ 3 10 км 6/4 270 м
[Cu Sc Ac trans Ci fib]
+28.1 +22.6 72 +37 +44 очень
душно
1011.8 1008.6
06 19.06 В 2 10 км 6/4 270 м
[Cu Sc Ac trans Ci fib]
+29.4 +22.4 66 +38 +42 очень
душно
1009.5 1006.3
09 19.06 штиль 0 10 км 4/3 360 м
[Sc Ac trans Ci fib]
+26.6 +23.5 83 +36 +36 очень
душно
1010.6 1007.4
12 19.06 штиль 0 10 км 4/3 360 м
[Sc Ac trans Ci fib]
+24.2 +23.0 93 +32 +32 очень
душно
1012.1 1008.9 +30.0
15 19.06 ЮВ 1 8000 м 8/5 270 м
[Sc Ac trans Ci sp]
+23.7 +22.7 94 +31 +31 очень
душно
1011.9 1008.7
18 19.06 штиль 0 10 км 8/6 270 м
[Sc Ac trans Ci sp]
+23.1 +22.1 94 +31 +31 очень
душно
1011.3 1008.1
00 20.06 В 3 8000 м 9/6 240 м
[Sc Ac lent Ci sp]
+25.6 +22.7 84 +34 +36 очень
душно
1013.1 1009.9 +22.4
03 20.06 В 3 8000 м 9/6 270 м
[Sc Ac lent Ci sp]
+28.8 +22.5 69 +38 +41 очень
душно
1011.4 1008.2
06 20.06 В 2 8000 м 9/6 270 м
[Cu Sc Ac trans Ci sp]
+27.4 +22.6 75 +36 +38 очень
душно
1010.3 1007.1
09 20.06 В 1 8000 м {дождь} 9/6 270 м
[Cu Sc Ac lent Ci sp]
+25.3 +23.0 87 +34 +34 очень
душно
1011.8 1008.6 0.0
12 20.06 ЮВ 2 8000 м {дождь} 9/6 300 м
[Sc Ac lent Ci sp]
+24.7 +22.9 90 +33 +33 очень
душно
1013.8 1010.6 +29.2 0.0

 

Местоположение метеостанции Танах Мерах (Индонезия): широта -6.10 долгота 140.30 высота над уровнем моря 16 м.

В архиве по умолчанию представлена погода в Танах Мерах за последнюю неделю. Архивные данные за месяц целиком и за предыдущие месяцы, начиная с января 2011 года, Вы можете получить, выбрав интересующий диапазон дат из раскрывающегося списка и нажав кнопку "Ввод!".


*Определитесь, кто Вы:
робот инопланетянин человек

Внимание! Время в таблицах - всемирное. Для получения местного времени необходимо прибавить поправку, которая равна 9 ч.

Смотрите также архив погоды в соседних городах и на ближайших метеорологических станциях:

Погода в Мерауке (Индонезия) (264 км)
Погода в Вамене (Индонезия) (271 км)
Погода в Коконао (Индонезия) (338 км)
Погода в Сентани (Индонезия) (392 км)
Погода в Джаяпуре (Индонезия) (393 км)
Погода в Энаротали (Индонезия) (498 км)
Погода в Сарми (Индонезия) (507 км)
Погода на Острове Коконат (Квинсленд, Австралия) (535 км)
Погода на Острове Хорн (Квинсленд, Австралия) (544 км)
Погода в Набире (Индонезия) (615 км)

Пояснения к столбцам:

Ветер - указаны скорость ветра в м/с - средняя за 10 мин, порывы в срок и между сроками (в фигурных скобках) и направление, откуда дует ветер: С - северный, СВ - северо-восточный, В - восточный, ЮВ - юго-восточный, Ю - южный, ЮЗ - юго-западный, З - западный, СЗ - северо-западный.
Видимость - горизонтальная дальность видимости в метрах или километрах. При видимости от 1 до 10 км при отсутствии осадков обычно наблюдается дымка, при ухудшении видимости до 1 км и менее - туман. В сухую погоду видимость может ухудшаться дымом, пылью или мглою.
Явления - указаны атмосферные явления, наблюдавшиеся в срок или в последний час перед сроком; фигурными скобками обозначены явления, наблюдавшиеся между сроками (за 1-3 часа до срока); квадратными скобками обозначены град или гололедные отложения с указанием их диаметра в мм.
Облачность - указаны через наклонную черту общая и нижняя облачность в баллах и высота нижней границы облаков в метрах; квадратными скобками обозначены формы облаков: Ci - перистые, Cs - перисто-слоистые, Cc - перисто-кучевые, Ac - высококучевые, As - высокослоистые, Sc - слоисто-кучевые, Ns - слоисто-дождевые, Cu - кучевые, Cb - кучево-дождевые. Подробнее классификацию облаков см. в Атласе облаков (PDF).
T - Температура воздуха - температура, измеренная на высоте 2 м над землей.
Td - Температура точки росы - температура, при понижении до которой содержащийся в воздухе водяной пар достигнет насыщения.
f - Относительная влажность воздуха - влажноcть воздуха, измеренная на высоте 2 м над землей.
Te - Эффективная температура - температура, которую ощущает одетый по сезону человек в тени. Характеристика душности погоды. При расчете учитывается влияние влажности воздуха и скорости ветра на теплоощущения человека.
Tes - Эффективная температура на солнце - температура, которую ощущает человек, с поправкой на солнечный нагрев. Характеристика знойности погоды. Зависит от высоты солнца над горизонтом, облачности и скорости ветра. Ночью, в пасмурную погоду, а также при ветре 12 м/с и более поправка равна нулю.
P - Атмосферное давление - приведенное к уровню моря атмосферное давление.
Po - Атмосферное давление - измеренное на уровне метеостанции атмосферное давление.
Tmin - Минимальная температура - минимум температуры воздуха на высоте 2 м над землей.
Tmax - Максимальная температура - максимум температуры воздуха на высоте 2 м над землей.
R - Количество осадков - Количество выпавших осадков за период времени, мм. При наведении курсора мыши на число - период времени, за который выпало указанное количество осадков.
R24 - Количество осадков - Количество выпавших осадков за 24 часа, мм.
S - Снежный покров - Высота снежного покрова, см. При наведении курсора мыши на число - состояние снежного покрова и степень покрытия местности в баллах.